Weather History for KGJT - December, 2012

Change the Weather History Date:

Monday, December 24, 2012

  Actual Average Record
Temperature  
Mean Temperature 24 °F 27 °F  
Max Temperature 29 °F 37 °F 64 °F (1955)
Min Temperature 18 °F 17 °F -16 °F (1924)
Degree Days  
Heating Degree Days 41 38  
Month to date heating degree days 840 864  
Since 1 July heating degree days 1920 2092  
Cooling Degree Days 0 0  
Month to date cooling degree days 0 0  
Year to date cooling degree days 1515 1125  
Moisture  
Dew Point 23 °F    
Average Humidity 89    
Maximum Humidity 100    
Minimum Humidity 77    
Precipitation  
Precipitation 0.17 in 0.02 in 0.27 in (1962)
Month to date precipitation 0.97 0.46  
Year to date precipitation 4.44 9.29  
Snow  
Snow 3.20 in 0.20 in 4.20 in (1962)
Month to date snowfall 9.2 3.5  
Since 1 July snowfall 11.7 6.0  
Snow Depth 2.00 in    
Sea Level Pressure  
Sea Level Pressure 29.84 in    
Wind  
Wind Speed 6 mph (NNW)    
Max Wind Speed 21 mph    
Max Gust Speed 24 mph    
Visibility 3 miles    
Events Fog , Snow    
T = Trace of Precipitation, MM = Missing Value Source: NWS Daily Summary

Daily Weather History Graph

Daily Weather History Graph

Search for Another Location

Airport or City:

Trip Planner

Search our weather history database for the weather conditions in past years. The results will help you decide how hot, cold, wet, or windy it might be!

Date:

Astronomy

Dec. 24, 2012 Rise Set
Actual Time 7:31 AM MST 4:56 PM MST
Civil Twilight 7:01 AM MST 5:26 PM MST
Nautical Twilight 6:27 AM MST 6:00 PM MST
Astronomical Twilight 5:55 AM MST 6:33 PM MST
Moon 2:25 PM MST (12/24) 4:13 AM MST (12/24)
Length of Visible Light 10h 25m
Length of Day
9h 25m
Waxing Gibbous, 89% of the Moon is Illuminated
Dec 24
Waxing Gibbous
Dec 28
Full
Jan 4
Last Quarter
Jan 11
New
Jan 18
First Quarter

Hourly Weather History & Observations

Time (MST) Temp. Windchill Dew Point Humidity Pressure Visibility Wind Dir Wind Speed Gust Speed Precip Events Conditions
12:53 AM 18.0 °F - 16.0 °F 92% 30.10 in 7.0 mi Calm Calm - N/A   Overcast
1:53 AM 19.0 °F - 15.1 °F 85% 30.07 in 8.0 mi Calm Calm - N/A   Overcast
2:53 AM 19.9 °F - 16.0 °F 85% 30.05 in 7.0 mi Calm Calm - N/A   Overcast
3:53 AM 21.0 °F - 16.0 °F 81% 30.01 in 7.0 mi Calm Calm - N/A   Overcast
4:53 AM 21.9 °F - 17.1 °F 82% 29.98 in 8.0 mi Calm Calm - N/A   Overcast
5:53 AM 19.0 °F 10.0 °F 17.1 °F 92% 29.99 in 6.0 mi NW 6.9 mph - N/A   Overcast
6:53 AM 21.9 °F 15.7 °F 19.0 °F 89% 30.00 in 6.0 mi West 4.6 mph - N/A   Overcast
7:33 AM 19.4 °F 11.5 °F 19.4 °F 100% 29.86 in 2.5 mi WNW 5.8 mph - 0.00 in Snow Light Snow
7:53 AM 19.9 °F 13.4 °F 19.0 °F 96% 29.98 in 1.5 mi WSW 4.6 mph - 0.00 in Snow Light Snow
8:00 AM 19.4 °F 11.5 °F 19.4 °F 100% 29.86 in 2.0 mi WSW 5.8 mph - 0.01 in Snow Light Snow
8:14 AM 21.2 °F 11.7 °F 19.4 °F 93% 29.86 in 1.5 mi South 8.1 mph - 0.01 in Snow Light Snow
8:26 AM 19.4 °F 12.8 °F 19.4 °F 100% 29.86 in 1.5 mi SSE 4.6 mph - 0.01 in Snow Light Snow
8:53 AM 21.0 °F 14.6 °F 19.9 °F 96% 29.97 in 0.5 mi East 4.6 mph - 0.02 in Fog , Snow Snow
9:00 AM 21.2 °F 14.9 °F 19.4 °F 93% 29.85 in 0.5 mi ESE 4.6 mph - 0.00 in Fog , Snow Snow
9:19 AM 21.2 °F 14.9 °F 21.2 °F 100% 29.84 in 0.8 mi ESE 4.6 mph - 0.01 in Snow Light Snow
9:24 AM 21.2 °F 12.6 °F 21.2 °F 100% 29.84 in 1.0 mi SE 6.9 mph - 0.01 in Snow Light Snow
9:46 AM 21.2 °F 12.6 °F 21.2 °F 100% 29.83 in 1.5 mi SE 6.9 mph - 0.01 in Snow Light Snow
9:53 AM 23.0 °F 15.8 °F 21.9 °F 96% 29.94 in 1.8 mi ESE 5.8 mph - 0.01 in Snow Light Snow
10:00 AM 23.0 °F 14.7 °F 21.2 °F 93% 29.83 in 2.5 mi ESE 6.9 mph - 0.00 in   Overcast
10:53 AM 25.0 °F 19.3 °F 21.9 °F 88% 29.92 in 2.5 mi East 4.6 mph - 0.00 in   Overcast
11:19 AM 24.8 °F 19.1 °F 23.0 °F 93% 29.80 in 0.5 mi East 4.6 mph - 0.01 in Fog , Snow Snow
11:26 AM 24.8 °F 19.1 °F 23.0 °F 93% 29.79 in 0.5 mi East 4.6 mph - 0.01 in Fog , Snow Snow
11:39 AM 24.8 °F 20.5 °F 23.0 °F 93% 29.78 in 0.5 mi East 3.5 mph - 0.02 in Fog , Snow Snow
11:53 AM 25.0 °F 20.7 °F 24.1 °F 96% 29.87 in 0.5 mi ENE 3.5 mph - 0.03 in Fog , Snow Snow
12:08 PM 26.6 °F - 24.8 °F 93% 29.76 in 1.0 mi Calm Calm - 0.00 in Snow Light Snow
12:53 PM 28.0 °F - 26.1 °F 92% 29.83 in 1.2 mi Calm Calm - 0.00 in Snow Light Snow
1:00 PM 28.4 °F - 26.6 °F 93% 29.73 in 1.2 mi Calm Calm - 0.01 in Snow Light Snow
1:16 PM 28.4 °F - 26.6 °F 93% 29.72 in 1.2 mi Calm Calm - 0.01 in Snow Light Snow
1:26 PM 26.6 °F - 26.6 °F 100% 29.72 in 0.8 mi Calm Calm - 0.01 in Snow Light Snow
1:53 PM 28.0 °F - 27.0 °F 96% 29.79 in 0.8 mi Calm Calm - 0.02 in Snow Light Snow
2:12 PM 28.4 °F - 28.4 °F 100% 29.70 in 0.5 mi Calm Calm - 0.01 in Fog , Snow Snow
2:19 PM 28.4 °F 24.6 °F 26.6 °F 93% 29.70 in 0.8 mi West 3.5 mph - 0.01 in Snow Light Snow
2:50 PM 26.6 °F 19.1 °F 26.6 °F 100% 29.70 in 0.5 mi WNW 6.9 mph - 0.03 in Fog , Snow Snow
2:53 PM 26.1 °F 19.4 °F 26.1 °F 100% 29.79 in 0.5 mi WNW 5.8 mph - 0.03 in Fog , Snow Snow
3:53 PM 26.1 °F 18.4 °F 26.1 °F 100% 29.78 in 0.5 mi WNW 6.9 mph - 0.03 in Fog , Snow Snow
4:53 PM 27.0 °F 19.5 °F 27.0 °F 100% 29.77 in 0.5 mi NW 6.9 mph - 0.02 in Fog , Snow Light Snow
5:23 PM 26.6 °F 20.0 °F 26.6 °F 100% 29.70 in 1.0 mi WNW 5.8 mph - 0.01 in Snow Light Snow
5:37 PM 26.6 °F 21.2 °F 26.6 °F 100% 29.71 in 1.2 mi WNW 4.6 mph - 0.01 in Snow Light Snow
5:46 PM 26.6 °F 21.2 °F 26.6 °F 100% 29.71 in 1.5 mi WNW 4.6 mph - 0.01 in Snow Light Snow
5:53 PM 26.1 °F 19.4 °F 26.1 °F 100% 29.81 in 1.8 mi WNW 5.8 mph - 0.01 in Snow Light Snow
6:00 PM 26.6 °F 21.2 °F 26.6 °F 100% 29.72 in 2.0 mi West 4.6 mph - 0.00 in Snow Light Snow
6:09 PM 26.6 °F 20.0 °F 26.6 °F 100% 29.72 in 1.8 mi WNW 5.8 mph - 0.00 in Snow Light Snow
6:21 PM 26.6 °F 19.1 °F 26.6 °F 100% 29.73 in 1.8 mi NW 6.9 mph - 0.00 in Snow Light Snow
6:32 PM 26.6 °F 19.1 °F 26.6 °F 100% 29.73 in 2.0 mi NNW 6.9 mph - 0.00 in Snow Light Snow
6:43 PM 28.4 °F 19.1 °F 28.4 °F 100% 29.73 in 4.0 mi NNW 10.4 mph - 0.00 in Snow Light Snow
6:53 PM 28.9 °F 18.2 °F 28.9 °F 100% 29.80 in 6.0 mi NNW 13.8 mph - 0.00 in   Overcast
7:24 PM 28.4 °F 17.0 °F 28.4 °F 100% 29.74 in 2.0 mi NNW 15.0 mph - 0.00 in Snow Light Snow
7:31 PM 26.6 °F 13.4 °F 26.6 °F 100% 29.74 in 1.8 mi NNW 18.4 mph - 0.00 in Snow Light Snow
7:53 PM 26.1 °F 13.1 °F 26.1 °F 100% 29.85 in 1.5 mi North 17.3 mph - 0.00 in Snow Light Snow
8:05 PM 26.6 °F 14.7 °F 26.6 °F 100% 29.75 in 2.5 mi North 15.0 mph - 0.00 in Snow Light Snow
8:12 PM 26.6 °F 14.7 °F 26.6 °F 100% 29.76 in 3.0 mi North 15.0 mph - 0.00 in Snow Light Snow
8:51 PM 26.6 °F 14.7 °F 24.8 °F 93% 29.78 in 10.0 mi NNW 15.0 mph - 0.00 in   Overcast
8:53 PM 26.1 °F 14.0 °F 25.0 °F 96% 29.86 in 10.0 mi NNW 15.0 mph - 0.00 in   Overcast
9:53 PM 24.1 °F 10.1 °F 23.0 °F 96% 29.90 in 10.0 mi NNW 18.4 mph - N/A   Overcast
10:53 PM 25.0 °F 13.1 °F 23.0 °F 92% 29.93 in 10.0 mi North 13.8 mph - N/A   Overcast
11:53 PM 26.1 °F 15.0 °F 23.0 °F 88% 29.96 in 10.0 mi North 12.7 mph - N/A   Overcast